Starlink 11583

operational
NORAD ID: 62991 Int'l Des: 2025-031 Owner: SPXS Country: US Constellation: starlink
LEOCIRCULAR

Starlink 11583について

説明を読み込み中...

リアルタイム位置

3D地球を読み込み中...

次回通過

高度履歴

Altitude vs Time

uPlot chart will show altitude changes over time

軌道要素

1 62991U 25031L 25258.48043044 .00564644 00000-0 40832-2 0 9995
2 62991 43.0010 337.8217 0000637 135.3826 224.7093 15.71004492 35190
Epoch: Sep 15, 2025 • Age: 10 hours

現在のステータス

高度 358.2 km
速度 7.70 km/s
衛星直下点 -17.42°S, 143.59°W
打ち上げ日 Feb 11, 2025
運用期間 0.5 years
タイプ internet

技術仕様

分類 Payload
質量 960.00 kg
乾燥質量 910.00 kg
総質量 960.00 kg
長さ 0.30 m
直径 4.10 m
スパン 29.00 m
形状 Box + pan
製造者 SPXS
バスタイプ Starlink V2MD
フェーズステータス In Orbit
所有者/国 SPXS/US

大規模コンステレーション

Loading constellations...